SCP
1 1 1 1 1 1 1 1 1 1 1 0 0 0 0 0 0 0 0 1 1 1 1 1 1 1 1 1 0 1 0 0 0 1 1 0 0 0 0 0 0 0 0
1 1 1 1 1 1 1 1 1 1 1 0 0 0 0 0 0 0 0 0 1 1 1 1 1 1 1 1 0 1 1 0 0 1 1 0 0 0 0 0 0 0 0
1 1 1 1 1 1 1 1 1 1 1 0 0 0 0 0 0 0 0 0 0 1 1 1 1 1 1 1 1 1 1 1 1 1 1 0 0 0 0 0 0 0 0
1 1 1 1 1 1 1 1 1 1 0 0 0 0 0 0 0 0 0 0 0 0 1 1 1 1 1 1 1 1 1 1 1 1 1 0 0 0 0 0 0 0 0
1 1 1 1 1 1 1 1 1 0 0 0 0 0 0 0 0 0 0 0 0 0 1 1 1 1 1 1 1 1 1 1 1 1 1 0 0 0 0 0 0 0 0
1 1 1 1 1 1 1 0 0 0 0 0 0 0 0 0 0 0 0 0 0 0 1 1 1 1 1 1 1 1 0 1 1 1 1 1 1 0 0 0 0 0 0
1 1 1 1 1 0 0 0 0 0 0 0 0 0 0 0 0 0 0 0 0 0 0 1 1 1 1 1 1 1 0 0 1 1 1 1 1 0 0 0 0 0 0
1 1 1 0 0 0 0 0 0 0 0 0 0 0 0 0 0 0 0 0 0 0 0 0 0 0 0 0 1 0 0 0 0 1 1 1 1 0 0 0 0 0 0
1 1 0 0 0 0 0 0 0 0 0 0 0 0 0 0 0 0 0 0 0 0 0 0 0 0 0 0 0 0 0 0 0 0 0 0 0 0 0 0 0 0 0
1 1 0 0 0 0 0 0 0 0 0 0 0 0 0 0 0 0 0 0 0 0 0 0 0 0 0 0 0 0 0 0 0 0 0 0 0 0 0 0 0 0 0
1 1 0 0 0 0 0 0 0 0 0 0 0 0 0 0 0 0 0 0 0 0 0 0 0 0 0 0 0 0 0 0 0 0 0 0 0 0 0 0 0 0 0
1 1 0 0 0 0 0 0 0 0 0 0 0 0 0 0 0 0 0 0 0 0 0 0 0 0 0 0 0 0 0 0 0 0 0 0 0 0 0 0 0 0 0
1 0 0 0 0 0 0 0 0 0 0 0 0 0 0 0 0 0 0 0 0 0 0 0 0 0 0 0 0 0 0 0 0 0 0 0 0 0 0 0 0 0 0
0 0 0 0 0 0 0 0 0 0 0 0 0 0 0 0 0 0 0 0 0 0 0 0 0 0 0 0 0 0 0 0 0 0 0 0 0 0 0 0 0 0 0
0 0 0 0 0 0 0 0 0 0 0 0 0 0 0 0 0 0 0 0 0 0 0 0 0 0 0 0 0 0 0 0 0 0 0 0 0 0 0 0 0 0 0
0 0 0 0 0 0 0 0 0 0 0 0 0 0 0 0 0 0 0 0 0 0 0 0 0 0 0 0 0 0 0 0 0 0 0 0 0 0 0 0 0 0 0
0 0 0 0 0 0 0 0 0 0 0 0 0 0 0 0 0 0 0 0 0 0 0 0 0 0 0 0 0 0 0 0 0 0 0 0 0 0 0 0 0 0 0
0 0 0 0 0 0 0 0 0 0 0 0 0 0 0 0 0 0 0 0 0 0 0 0 0 0 0 0 0 0 0 0 0 0 0 0 0 0 0 0 0 0 0
0 0 0 0 0 0 0 0 0 0 0 0 0 0 0 0 0 0 0 0 0 0 0 0 0 0 0 0 0 0 0 0 0 0 0 0 0 0 0 0 0 0 0
0 0 0 0 0 0 0 0 0 0 0 0 0 0 0 0 0 0 0 0 0 0 0 0 0 0 0 0 0 0 0 0 0 0 0 0 0 0 0 0 0 0 0
0 0 0 0 0 0 0 0 0 0 0 0 0 0 0 0 0 0 0 0 0 0 0 0 0 0 0 0 0 0 0 0 0 0 0 0 0 0 0 0 0 0 0
0 0 0 0 0 0 0 0 0 0 0 0 0 0 0 0 0 0 0 0 0 0 0 0 0 0 0 0 0 0 0 0 0 0 0 0 0 0 0 0 0 0 0
0 0 0 0 0 0 0 0 0 0 0 0 0 0 0 0 0 0 0 0 0 0 0 0 0 0 0 0 0 0 0 0 0 0 0 0 0 0 0 0 0 0 0
0 0 0 0 0 0 0 0 0 0 0 0 0 0 0 0 0 0 0 0 0 0 0 0 0 0 0 0 0 0 0 0 0 0 0 0 0 0 0 0 0 0 0
0 0 0 0 0 0 0 0 0 0 0 0 0 0 0 0 0 0 0 0 0 0 0 0 0 0 0 0 0 0 0 0 0 0 0 0 0 0 0 0 0 0 0
0 0 0 0 0 0 0 0 0 0 0 0 0 0 0 0 0 0 0 0 0 0 0 0 0 0 0 0 0 0 0 0 0 0 0 0 0 0 0 0 0 0 0
Wind_Speed
1 1 1 1 2 1 1 2 3 3 3 4 4 5 4 4 3 2 1 5 5 6 7 7 7 7 9 9 9 9 9 8 8 9 9 10 11 11 11 12 12 12 12
0 1 1 2 2 1 1 2 3 3 3 3 4 4 4 4 3 3 2 4 7 8 8 8 9 9 9 10 10 10 10 10 9 9 9 9 10 11 11 12 12 12 12
0 1 2 2 1 3 3 2 3 3 3 3 4 4 4 3 3 3 3 2 4 8 9 9 9 10 10 11 11 11 11 10 10 10 9 9 10 10 11 11 11 12 13
1 1 2 1 1 3 2 2 2 2 3 3 3 4 4 3 4 4 3 3 3 3 6 10 9 10 11 12 12 11 11 11 11 11 11 11 10 10 10 11 12 12 13
2 1 1 1 2 2 2 3 1 2 3 4 5 5 4 3 3 4 3 4 4 4 3 6 10 11 12 12 12 12 12 12 11 11 12 11 11 11 11 11 12 12 13
2 1 2 1 2 2 2 2 3 3 3 4 6 5 4 4 3 3 4 3 3 4 4 4 4 7 11 12 12 12 13 12 12 11 12 12 12 11 12 12 11 12 13
1 2 2 1 1 1 2 3 3 4 3 3 4 5 5 5 4 3 2 3 3 3 3 3 3 2 4 10 11 11 12 12 12 12 12 12 11 11 11 12 12 12 12
2 2 1 2 1 1 3 3 3 3 4 3 2 4 4 2 2 3 2 3 2 2 3 4 3 3 2 2 5 9 10 10 11 11 11 11 11 11 12 12 12 13 13
2 2 2 2 2 2 2 2 3 3 4 4 2 2 2 2 3 2 3 2 2 2 2 2 3 3 3 2 3 6 8 9 10 11 11 10 10 10 11 12 13 13 13
3 3 2 2 2 2 2 3 2 3 4 4 3 3 3 2 2 3 3 2 2 2 2 2 2 2 2 2 2 5 6 8 10 11 11 11 11 11 11 12 13 12 13
3 3 2 2 2 2 2 3 3 3 3 4 3 3 3 3 4 3 4 3 3 2 2 2 2 1 2 2 2 4 6 6 7 8 9 9 10 11 12 12 12 12 13
2 2 2 2 2 2 2 3 3 4 3 4 4 3 3 3 3 2 3 3 3 3 3 2 2 2 2 2 3 4 5 6 6 6 7 8 9 9 10 11 11 12 12
2 1 2 2 2 2 3 3 3 3 3 4 4 4 3 4 3 3 3 3 3 3 2 1 2 2 2 1 2 5 5 6 6 6 6 7 7 7 8 9 10 10 10
1 1 2 2 2 3 3 2 3 3 3 3 5 4 3 4 3 3 2 2 3 3 2 3 2 2 2 2 3 5 3 5 7 7 7 7 7 8 7 8 9 9 9
2 1 1 2 3 3 3 3 2 3 3 3 4 4 3 3 3 2 2 2 3 4 4 3 2 2 2 1 3 3 2 5 7 8 8 7 8 8 8 8 8 7 7
1 2 2 2 2 3 2 2 3 2 3 3 3 4 3 3 3 2 3 3 2 3 4 3 3 3 2 3 4 3 3 5 7 8 9 9 8 8 8 8 7 7 7
1 2 2 2 2 3 2 2 4 3 3 3 4 4 3 3 3 3 2 2 2 2 4 4 3 3 3 3 2 3 3 4 4 8 9 9 9 9 9 8 8 7 7
1 1 2 2 3 3 2 3 4 3 3 4 3 4 4 3 3 3 3 3 3 3 3 5 4 3 3 3 3 3 3 3 3 6 9 10 10 10 9 9 9 8 8
2 2 2 2 3 2 2 3 3 3 4 3 3 4 4 4 4 3 3 3 3 4 3 4 5 3 2 2 2 3 3 2 4 5 7 10 11 11 11 10 9 9 9
2 2 2 2 2 2 2 3 3 3 4 4 4 4 4 4 4 4 4 3 3 3 3 3 4 3 3 2 1 2 2 2 3 4 4 6 9 11 12 11 11 11 10
3 2 2 2 2 2 2 3 4 4 4 4 4 4 4 4 4 4 4 3 3 3 3 3 4 3 3 2 2 2 2 2 3 3 2 3 4 4 6 9 11 12 11
2 2 2 2 2 2 3 4 4 5 4 4 5 4 4 3 4 5 6 6 5 4 4 4 4 4 4 3 3 3 2 2 2 2 2 3 3 4 5 5 9 12 12
2 2 2 2 2 2 3 4 5 4 4 4 4 4 5 4 4 3 4 6 6 8 9 6 5 6 5 4 3 4 3 3 4 3 2 3 3 3 4 6 11 13 13
2 2 2 2 2 2 3 4 5 4 4 4 4 4 4 4 5 3 4 4 4 5 6 5 5 6 6 4 4 4 4 4 4 3 3 3 3 3 4 3 9 13 13
3 3 3 3 2 2 3 3 3 3 3 4 4 4 4 3 2 3 3 4 5 5 6 5 6 7 8 8 5 3 3 3 4 3 2 3 3 3 3 3 5 11 12
3 4 3 2 3 2 3 3 3 3 3 3 3 2 2 2 2 2 3 4 5 5 5 6 6 7 6 6 7 5 4 4 3 3 2 2 2 2 2 3 3 4 6
Wind_Direction
229 242 253 256 267 270 246 252 270 279 273 273 278 282 294 290 282 286 184 192 198 205 215 224 231 236 241 241 242 241 239 239 237 233 227 223 222 221 219 219 217 214 216
150 267 246 259 271 288 281 273 282 279 271 273 275 280 280 282 281 281 260 211 215 216 219 225 229 234 241 245 245 245 241 240 239 237 229 223 223 219 219 219 217 215 217
246 275 260 240 286 283 265 255 273 275 270 273 274 275 267 262 267 269 265 244 225 224 224 228 230 233 238 241 244 244 240 239 236 235 231 228 227 221 220 219 215 214 214
226 270 277 278 281 276 276 272 265 294 293 290 290 282 275 260 250 250 249 248 244 244 228 230 233 235 238 240 241 243 240 237 234 233 233 232 232 227 221 219 215 214 213
225 243 284 282 277 279 288 294 322 299 290 288 281 263 262 262 254 259 249 246 241 241 234 230 230 237 239 239 240 240 238 236 235 234 234 232 232 228 221 219 218 217 215
237 241 253 259 291 293 300 304 296 272 272 279 284 285 273 264 250 248 249 251 243 243 239 243 230 237 239 241 241 242 239 236 234 233 233 229 230 229 223 221 219 217 216
259 270 269 271 266 272 292 290 285 283 277 277 287 287 266 250 246 241 235 247 251 257 246 231 225 235 240 241 240 242 243 240 238 237 236 233 232 230 228 226 222 218 218
246 249 252 266 261 276 277 280 289 292 293 288 289 298 291 273 288 266 240 242 252 259 258 253 233 226 241 227 229 238 244 244 243 241 239 237 234 231 230 229 228 225 222
229 260 244 259 274 260 272 289 286 281 283 285 260 271 296 304 315 289 285 279 263 259 264 266 247 225 234 232 222 232 243 245 246 244 242 239 236 234 234 233 231 229 227
222 230 240 250 268 270 271 274 273 282 280 284 278 253 252 274 280 297 299 298 285 272 261 266 271 253 237 237 229 221 232 239 240 243 242 239 235 235 234 232 229 228 229
217 226 228 244 256 263 265 282 289 276 275 279 285 288 279 271 251 265 291 302 303 296 278 262 258 251 253 241 227 221 222 227 228 235 238 239 238 235 232 231 230 230 231
229 232 235 243 263 267 262 261 271 276 276 280 285 286 282 279 276 269 275 289 293 287 275 265 260 242 235 232 231 210 210 215 217 219 227 233 235 237 231 229 230 230 232
242 239 269 252 258 256 255 259 267 272 278 280 277 275 277 273 271 271 266 281 292 289 283 272 253 248 244 219 209 201 207 207 205 204 211 222 231 235 231 225 227 231 234
265 256 257 259 264 266 269 263 268 269 272 277 280 281 282 281 273 266 265 281 294 290 280 278 267 244 244 226 205 208 206 206 204 208 211 218 226 227 228 226 228 233 236
276 281 263 270 274 274 272 271 258 265 274 272 276 277 274 284 289 288 283 260 261 287 293 291 287 255 239 228 204 215 209 213 208 212 215 219 224 224 222 225 223 225 229
286 289 276 278 282 282 281 281 278 256 260 269 267 269 275 277 288 285 277 275 267 269 284 296 284 276 262 252 221 217 217 225 220 213 214 217 221 221 218 219 219 219 223
269 271 277 273 274 275 275 271 271 267 262 264 269 276 276 275 284 281 280 278 273 267 278 287 280 273 258 253 234 229 220 217 215 212 212 214 215 214 216 217 216 217 219
272 278 273 267 270 274 268 267 271 275 273 273 279 285 288 286 278 274 277 279 279 273 271 283 286 278 264 248 229 235 238 228 217 219 211 210 211 212 214 215 213 212 215
259 272 272 270 277 281 273 270 273 280 280 279 277 279 280 280 280 279 278 278 279 285 276 279 287 283 275 261 244 250 252 247 237 225 215 211 214 214 215 215 213 213 214
280 271 274 280 281 291 303 301 292 284 284 286 282 277 276 276 276 281 282 277 283 288 287 287 289 291 285 275 260 251 257 245 251 238 227 216 210 214 217 216 217 218 217
290 301 305 299 297 306 337 332 311 298 300 295 290 281 272 280 282 279 288 287 291 287 289 289 291 300 295 296 280 264 260 247 253 245 225 223 202 208 215 219 220 219 216
281 291 298 311 321 322 329 325 319 303 296 293 293 288 274 276 279 266 264 264 261 268 278 281 284 288 288 282 278 279 276 278 269 249 235 249 213 210 214 209 209 208 210
280 284 285 292 298 327 316 319 313 295 290 290 290 291 294 298 295 286 278 266 266 261 250 249 264 271 274 272 272 277 272 274 269 260 247 255 236 229 228 220 204 204 206
265 262 269 268 280 299 312 316 309 282 285 287 288 288 288 286 298 310 303 302 294 289 275 251 251 263 272 272 266 265 265 274 266 257 240 252 253 243 238 220 203 201 205
263 259 257 261 267 269 282 290 299 286 290 296 297 304 300 302 329 318 296 300 302 301 300 284 267 266 271 269 262 272 273 269 274 265 233 231 247 251 245 232 214 206 206
258 263 263 267 272 263 264 279 289 280 297 305 306 308 327 327 321 310 294 296 295 298 311 311 298 282 268 259 244 225 243 261 274 273 248 237 245 243 256 234 204 199 207